Theta_e
335 338 340 345 346 346 349 349 349 349 348 348 348 349 348 348 347 346 348 345 345 345 345 346 344 343 344 344 343 343 348 348 348 347 345 344 343 342 341 341 342 342 342 342 342 344 344 343 341 341 341 341 341 341 340 340 340 340 340 340 341 341 341 341 341 340 341 342 344 345 345 346 346 346 345 345 344 343 341 341 341 337 338 340 343
334 340 338 340 347 347 348 349 349 349 349 348 349 349 349 348 348 348 347 347 346 345 345 346 345 345 343 343 343 345 347 347 348 346 345 344 343 343 342 342 341 342 342 343 343 344 344 344 342 342 341 341 340 340 339 339 338 339 339 340 340 340 340 341 339 339 339 340 340 341 342 343 344 344 345 344 343 342 340 341 340 336 337 342 342
339 342 342 342 348 348 349 348 349 349 348 349 349 349 348 348 348 347 347 346 346 346 346 345 343 342 342 342 344 347 347 347 347 345 346 344 342 341 340 340 341 341 341 342 341 344 345 343 342 342 341 340 340 340 339 338 337 337 338 339 339 339 340 339 339 339 339 339 338 339 339 340 340 342 342 342 342 343 341 341 340 340 336 340 340
340 343 343 343 346 348 349 349 348 348 348 348 348 348 348 348 348 348 347 347 346 345 344 344 343 343 342 342 343 348 347 347 347 346 345 342 342 341 340 340 340 340 340 341 342 346 345 344 342 341 340 339 339 339 338 337 337 338 338 339 340 339 339 339 339 338 338 337 337 335 332 329 334 340 342 343 342 344 341 341 341 341 342 342 341
342 343 340 341 343 346 349 349 348 349 349 348 348 348 348 348 347 347 346 345 345 344 344 344 343 343 342 341 347 347 347 346 346 345 343 342 342 340 340 339 339 340 341 340 340 340 342 343 342 338 337 337 338 337 336 337 338 338 338 339 340 339 339 338 338 337 336 335 334 331 326 329 330 340 342 343 343 342 341 341 341 341 341 341 341
342 342 340 340 342 344 348 349 349 349 348 349 348 348 348 348 348 347 346 346 345 345 345 344 344 344 343 342 346 347 347 346 346 345 344 342 342 341 340 341 341 340 340 340 340 341 341 341 341 341 340 339 339 338 337 337 337 338 340 340 340 339 339 338 338 337 335 334 332 329 331 332 333 336 342 342 343 339 340 340 340 340 341 341 341
343 342 341 340 340 343 345 349 349 348 349 348 348 348 348 347 347 347 346 345 344 344 344 344 344 344 343 344 346 346 346 346 345 345 344 342 342 340 339 339 339 339 338 339 339 340 340 341 342 340 339 339 338 339 340 339 338 338 339 340 340 339 339 338 337 336 334 331 328 329 331 332 333 334 341 341 342 340 340 342 342 341 342 341 341
343 344 343 340 340 343 345 349 349 349 348 348 348 348 347 347 346 346 346 346 345 344 344 343 343 343 343 343 345 346 346 346 345 345 344 342 340 339 339 339 338 339 339 339 339 339 340 342 342 341 341 340 340 338 338 339 339 339 340 340 339 339 338 337 336 336 335 329 329 330 331 332 333 335 341 341 341 340 341 341 341 341 341 340 336
341 343 343 340 338 343 345 347 348 348 348 349 347 347 347 346 346 346 346 344 344 344 344 343 343 342 343 342 343 345 346 346 345 343 341 341 340 339 339 339 339 340 340 339 340 342 343 343 342 342 342 340 339 339 338 339 339 340 340 340 339 338 337 336 335 333 331 330 330 329 329 330 331 332 338 341 340 341 339 338 338 339 339 336 336
341 343 344 341 338 341 343 347 348 348 348 348 348 347 347 347 346 346 346 346 345 344 344 343 343 343 342 342 346 346 345 344 343 342 341 340 340 339 338 338 338 338 339 340 339 342 342 342 343 342 341 340 340 340 340 340 339 340 340 339 339 338 337 335 333 332 328 329 331 332 333 336 333 333 337 340 340 340 337 334 335 335 334 335 336
342 343 344 344 343 342 346 348 348 348 347 347 348 347 346 346 346 346 345 345 344 343 343 343 343 343 341 341 343 344 345 344 343 342 341 339 339 338 338 338 337 337 338 338 339 339 340 342 341 341 342 340 339 339 340 339 340 339 339 338 338 337 335 333 331 328 329 329 329 330 333 334 330 333 339 339 339 338 335 335 335 335 336 336 337
341 342 344 344 345 341 345 347 348 347 347 347 347 347 347 346 346 346 346 345 344 344 343 342 342 342 342 340 343 343 343 343 341 340 340 339 338 338 337 337 337 337 338 338 338 339 339 340 340 340 340 339 338 339 338 339 338 338 337 337 336 335 334 332 328 327 328 328 329 330 329 330 333 338 341 340 340 337 335 334 334 336 336 335 336
340 341 343 343 344 339 343 346 346 347 347 347 348 347 346 346 346 346 345 345 344 344 343 342 342 342 341 340 339 341 341 342 341 340 338 339 338 337 337 337 336 337 337 337 337 338 339 340 339 339 339 338 338 338 338 337 337 336 336 336 335 334 332 331 326 327 327 327 328 329 330 332 333 338 339 338 338 336 336 336 335 336 336 336 335
340 341 342 343 343 344 340 344 345 347 347 347 347 347 346 346 345 345 345 344 344 343 342 342 341 341 340 339 338 338 339 340 339 339 338 337 337 337 337 336 336 337 337 337 337 338 339 339 339 338 338 338 337 337 337 336 336 335 334 334 333 332 329 328 328 326 327 328 329 329 329 331 332 336 337 337 336 336 335 334 334 333 333 333 332
339 341 342 343 343 343 341 340 342 343 345 347 347 346 346 346 345 345 344 344 343 342 341 341 341 340 340 339 338 338 338 338 337 337 336 336 337 336 336 336 337 336 336 336 337 338 338 339 338 338 337 337 337 337 336 335 335 334 333 332 331 329 327 324 325 325 326 328 328 329 329 330 334 336 337 337 335 335 334 332 332 331 331 330 330
341 341 342 343 343 343 341 341 339 340 341 343 344 345 346 346 345 344 343 343 343 342 341 340 339 339 339 339 338 338 338 337 337 336 335 335 335 336 335 336 335 336 336 336 337 337 338 338 337 337 336 336 336 336 335 334 334 332 331 330 329 327 325 324 324 324 324 325 327 327 328 329 333 334 334 334 334 333 332 332 331 330 329 329 328
341 342 342 342 343 343 341 339 337 335 336 338 339 341 342 344 345 344 343 343 342 341 340 340 339 339 339 338 338 339 338 337 336 335 335 335 335 335 334 336 336 336 335 336 337 337 336 336 336 336 335 335 335 335 334 334 332 331 330 329 327 326 324 323 323 323 324 325 325 326 327 328 331 333 332 332 331 330 330 329 329 329 328 327 326
340 341 341 342 342 342 342 340 336 335 337 336 334 337 339 342 342 342 341 342 342 341 340 340 340 339 338 337 337 337 337 336 336 336 336 335 334 335 336 336 336 335 334 335 336 336 336 335 335 334 334 334 334 334 333 332 330 329 328 327 326 324 322 321 321 323 324 325 323 324 324 328 329 330 330 330 329 329 328 328 327 326 326 326 326
339 340 341 341 342 342 342 340 337 337 338 338 334 336 335 337 338 338 339 340 340 338 338 337 336 335 335 334 333 332 332 332 332 333 334 333 332 329 333 335 335 334 333 334 335 335 334 334 334 334 333 333 332 332 331 329 328 327 326 324 322 321 320 319 319 320 321 322 323 323 325 329 330 330 330 330 329 328 328 327 326 325 325 325 324
337 338 340 341 342 341 341 340 340 339 339 337 335 335 333 332 335 337 337 337 336 335 334 333 329 327 327 327 326 326 326 325 325 326 328 330 328 325 329 335 334 333 333 333 334 333 333 333 333 333 331 331 330 329 328 328 327 325 323 322 319 317 317 316 318 319 322 323 324 325 328 328 329 329 329 329 328 328 327 325 324 324 323 324 324
336 337 338 339 340 341 340 340 340 339 338 337 337 337 334 331 332 331 331 332 332 331 329 324 322 321 321 321 322 323 322 322 322 321 320 321 321 323 328 333 332 332 332 332 333 332 332 332 330 329 327 325 322 322 322 324 324 323 321 318 316 315 315 316 318 320 322 323 325 327 330 330 330 331 331 328 327 326 325 324 324 324 324 323 323
333 334 337 339 339 339 339 339 339 338 337 338 338 338 335 333 333 331 331 329 327 325 325 324 324 322 321 321 321 320 320 320 320 323 319 319 320 321 324 329 331 331 331 331 331 331 330 329 328 326 324 320 316 311 312 316 318 318 316 315 313 312 313 315 318 320 321 322 323 326 329 329 328 330 328 327 326 325 324 323 324 323 322 322 321
332 333 335 337 338 339 339 339 338 338 338 338 339 338 337 336 334 331 330 327 325 325 324 323 322 322 320 320 319 319 319 318 319 319 319 318 320 321 324 327 329 329 329 330 329 328 327 326 325 322 319 316 310 308 308 308 309 312 311 311 310 311 312 314 316 318 320 322 325 328 329 328 329 328 327 326 325 324 323 322 322 322 322 321 321
333 333 334 336 337 337 338 339 338 338 338 338 338 338 337 337 336 332 329 325 324 324 323 322 321 320 320 319 319 318 318 318 320 321 320 317 316 316 318 319 321 321 321 322 324 324 324 322 320 317 313 309 307 307 307 307 307 307 308 308 308 309 311 313 315 318 321 322 324 326 327 327 326 325 325 324 323 321 322 322 322 322 321 320 320
334 335 334 334 336 337 337 338 338 338 338 337 337 337 338 337 336 333 330 326 323 322 321 321 320 319 319 319 318 317 317 317 317 317 316 314 311 309 309 309 310 310 312 309 309 309 309 307 308 308 306 307 306 306 307 307 306 306 306 306 307 308 310 312 314 316 318 321 323 325 327 328 328 328 327 325 324 322 321 321 320 320 320 319 319
334 333 333 334 335 336 337 337 338 337 338 338 337 336 337 336 335 333 330 328 323 320 320 320 319 319 319 318 317 316 316 315 315 315 313 311 309 306 305 305 306 305 306 305 305 306 305 305 305 305 304 304 304 304 305 306 305 304 305 305 306 306 308 310 311 311 313 317 321 324 326 327 325 325 324 323 322 322 321 321 322 321 319 319 318
333 334 334 334 335 336 336 337 337 337 337 338 338 336 337 337 336 333 330 327 324 321 319 319 319 318 318 317 317 316 315 314 314 313 311 309 307 304 303 303 303 303 303 305 304 304 304 304 304 303 303 304 304 304 304 303 304 304 304 304 304 304 306 307 306 305 308 316 319 322 325 326 326 325 325 324 323 322 321 320 320 319 319 318 317
332 334 334 335 333 335 336 336 336 337 337 338 337 336 337 337 336 332 331 327 325 322 319 319 318 318 318 318 317 316 315 314 313 312 309 307 305 304 302 301 301 301 302 304 303 302 302 303 303 303 304 304 304 304 303 303 303 303 303 302 303 303 303 303 302 303 305 309 317 319 322 324 324 323 324 322 323 322 321 320 320 319 319 318 318
331 333 335 334 334 335 335 335 336 336 337 338 336 336 337 337 335 333 332 325 326 324 321 318 318 317 317 317 317 316 314 313 312 311 308 306 304 302 300 300 300 300 302 301 303 302 302 302 302 302 302 303 303 302 302 301 301 301 302 302 302 302 302 301 300 301 302 305 310 318 320 322 323 322 321 322 323 322 322 320 319 319 319 318 317
331 333 334 335 335 335 335 335 335 336 336 337 336 336 336 336 335 334 333 327 328 326 322 320 319 317 317 317 317 316 315 313 312 309 308 305 303 301 300 299 299 299 301 301 301 302 302 301 301 301 301 301 302 301 302 301 300 300 300 300 300 300 299 299 299 299 300 302 305 312 317 319 322 321 320 320 321 321 321 319 319 318 318 317 316
330 331 333 334 335 335 335 335 336 334 336 336 336 336 336 336 335 335 334 330 330 327 322 321 319 318 317 316 316 315 314 313 311 309 307 304 303 301 299 298 298 298 300 300 300 301 301 301 301 301 300 300 300 300 301 300 298 298 299 300 299 299 298 298 297 297 298 299 301 303 309 315 319 320 321 319 318 318 319 318 318 319 318 318 317
327 329 332 334 334 335 335 336 336 335 335 335 335 335 335 336 335 335 334 332 332 328 324 322 320 320 318 317 316 315 314 312 310 309 307 304 303 300 298 298 298 297 299 299 299 300 300 299 299 299 299 299 298 299 299 299 297 297 297 298 298 297 297 296 296 295 296 297 298 299 301 303 310 316 319 319 319 320 320 318 316 319 319 318 318
325 327 330 331 333 334 335 336 336 335 335 335 335 335 335 336 334 335 334 332 332 330 326 323 322 321 319 317 316 316 315 313 310 308 306 305 303 300 298 298 298 297 298 298 298 298 299 298 297 298 297 297 297 296 297 297 296 295 295 296 296 296 295 294 294 294 294 294 295 295 296 297 297 305 310 316 319 319 319 318 316 315 316 317 316
321 321 325 328 332 333 334 336 336 336 334 336 335 335 335 335 334 334 333 333 333 332 328 325 323 323 319 318 317 316 316 314 311 307 306 305 303 300 298 297 297 297 297 298 298 298 298 297 297 297 298 297 296 296 297 295 294 294 294 294 294 294 294 293 292 291 292 292 292 293 293 293 294 296 297 306 313 318 317 316 317 316 315 315 315
316 317 320 325 328 331 333 334 334 336 334 335 334 335 335 335 334 334 333 333 333 332 331 328 324 325 321 319 318 316 316 314 312 309 306 306 305 300 299 297 296 297 297 297 298 298 298 297 297 297 296 295 295 296 296 295 294 293 293 293 293 293 293 292 292 291 292 291 292 291 291 291 292 293 294 294 301 309 317 317 315 315 315 314 313
317 318 318 319 323 328 330 332 333 334 335 335 335 335 335 335 335 329 333 333 333 333 332 331 326 325 324 320 319 317 316 315 313 310 307 307 307 303 300 298 297 296 297 297 298 297 297 297 297 298 296 294 294 292 293 293 292 292 292 292 292 292 291 291 291 291 290 290 290 290 289 290 290 292 293 290 293 300 311 315 315 314 314 313 314
317 317 317 317 319 323 326 330 331 332 334 335 335 335 335 335 334 333 333 332 332 332 332 332 329 326 326 323 320 318 317 316 313 311 308 307 308 305 302 300 298 297 297 297 297 298 297 297 296 296 298 295 294 292 291 292 291 290 291 290 291 291 291 290 290 290 290 289 288 288 288 288 289 292 286 288 289 291 301 309 311 314 315 314 313
315 316 317 318 319 320 323 327 330 332 333 333 334 335 334 334 335 335 329 332 332 332 333 332 331 328 327 326 322 319 317 317 314 312 309 308 308 307 303 300 299 299 298 298 298 298 298 298 297 297 297 296 294 292 291 290 291 290 290 290 290 290 290 290 290 291 289 289 287 286 284 284 285 285 286 286 286 288 289 296 302 305 307 313 312
314 315 316 317 317 318 319 321 325 329 331 332 332 332 332 332 333 333 332 332 332 332 332 332 332 331 328 327 325 321 318 319 316 313 310 308 308 307 303 300 300 299 299 299 299 298 298 299 298 296 297 297 295 294 292 290 290 290 289 288 289 288 289 290 289 289 289 288 290 289 285 284 284 284 284 284 285 286 288 287 287 290 296 308 312
310 313 314 316 317 317 317 320 322 327 329 331 330 330 328 328 328 328 329 329 331 329 331 331 331 331 329 328 327 324 320 319 317 314 312 308 308 307 304 301 300 299 299 299 298 298 298 297 297 296 294 292 292 291 291 290 289 288 289 288 288 289 290 288 288 288 288 287 286 286 285 284 282 282 282 282 283 284 285 285 287 286 288 297 305
307 310 312 314 316 317 317 318 320 323 326 327 328 328 326 325 326 327 327 328 328 329 329 331 331 331 330 330 328 327 324 320 319 316 314 310 308 307 304 301 300 300 299 299 299 299 299 299 297 296 294 292 290 290 291 291 290 288 288 287 287 288 289 288 287 287 287 286 285 285 284 283 282 282 281 282 282 282 283 284 284 285 286 285 290
305 308 311 314 316 317 317 318 318 321 324 326 327 327 328 328 327 327 328 327 326 326 327 329 330 330 330 330 328 328 326 322 320 318 315 313 310 308 305 302 301 300 300 300 299 299 299 299 297 295 295 294 291 291 291 294 292 293 290 287 287 287 289 287 287 287 286 285 285 284 282 282 282 281 281 281 281 281 282 282 283 284 284 285 284
303 307 310 311 313 314 316 316 317 319 321 323 325 326 327 326 326 324 327 323 324 325 326 324 325 328 328 328 328 329 328 325 322 319 317 315 312 310 307 304 302 301 300 299 298 298 299 298 297 297 294 294 292 292 291 297 294 289 290 290 287 289 290 288 286 286 286 285 284 283 283 281 281 280 280 280 281 282 282 281 282 283 283 283 283
302 304 307 310 312 313 315 316 316 318 320 321 319 323 322 319 318 316 319 325 320 320 323 318 322 324 325 325 326 328 328 326 324 322 320 318 315 312 309 305 303 302 301 300 299 298 298 298 297 297 296 293 291 290 292 295 291 293 291 292 285 286 287 291 287 285 284 285 284 282 282 281 280 280 280 280 282 281 280 281 281 281 281 281 282
302 304 307 310 312 313 315 315 316 316 318 317 318 316 314 313 310 311 313 313 313 316 318 317 319 318 319 323 325 325 326 326 326 324 320 320 317 314 310 307 305 304 302 301 299 299 298 298 297 297 297 297 292 292 292 293 291 300 294 286 284 284 289 285 285 285 284 284 283 282 282 282 280 280 281 280 280 280 280 280 280 281 280 281 281
302 304 306 309 310 310 311 312 313 313 315 315 316 316 317 316 314 316 315 315 316 315 317 320 318 318 320 319 318 322 325 326 326 325 322 320 318 316 312 309 306 305 303 304 302 301 300 298 297 298 297 298 296 293 292 292 291 293 294 293 293 293 291 284 288 288 284 284 283 283 282 282 280 281 280 280 280 280 281 281 280 281 280 280 280
302 301 302 306 308 309 310 311 312 312 312 311 313 314 316 315 316 318 319 318 318 318 320 321 322 320 319 318 320 319 320 321 324 325 323 320 319 316 313 310 308 306 304 304 302 301 300 299 298 298 298 298 297 293 292 292 290 290 292 290 288 286 287 286 286 285 284 285 284 283 283 283 281 280 280 280 280 279 280 280 280 280 280 280 280
297 300 302 304 307 308 309 310 310 309 309 310 311 314 316 314 314 315 315 316 317 317 315 315 316 317 318 318 317 317 317 319 319 319 322 321 319 317 315 312 309 307 304 303 303 302 300 299 298 298 299 298 297 295 294 293 290 291 291 290 287 286 287 288 289 290 288 284 283 283 282 283 282 281 281 281 280 280 279 279 280 279 279 280 280
298 301 303 304 305 305 306 306 307 307 307 308 310 311 313 314 314 314 313 313 313 309 303 305 309 309 316 316 315 315 315 316 318 319 318 319 318 318 316 313 311 309 305 304 304 302 300 299 298 297 297 297 297 297 296 293 292 294 292 291 288 285 286 287 286 287 286 284 284 283 282 282 282 282 281 281 282 281 280 279 280 280 280 281 280
295 297 297 299 301 303 304 305 306 306 305 306 308 309 310 310 312 312 313 312 306 301 300 304 305 304 311 313 314 314 314 314 314 315 316 316 317 317 316 314 312 310 305 305 305 304 302 300 299 298 298 297 297 297 297 296 294 296 294 294 291 286 284 284 285 285 284 284 286 283 284 282 281 282 283 282 282 281 281 280 279 279 279 279 279
294 296 297 299 300 302 303 305 304 303 303 305 306 308 308 308 311 311 311 311 306 305 302 301 300 301 308 311 312 313 313 314 313 313 313 314 314 313 315 315 314 310 307 306 305 304 303 301 300 299 298 297 297 297 296 297 296 295 295 295 293 290 289 288 286 284 285 285 284 285 284 284 283 282 282 283 282 281 281 281 280 279 279 279 279
Wind_Speed
4 5 2 3 12 10 11 12 12 12 11 11 11 12 13 13 13 14 14 14 15 15 15 15 15 15 14 14 14 15 17 17 17 17 19 18 18 17 16 17 18 18 18 18 17 18 19 20 20 19 19 19 20 20 19 18 18 18 18 19 19 19 20 21 21 20 20 21 22 22 23 23 24 24 23 23 22 21 18 19 16 13 13 19 25
7 4 3 2 10 11 12 12 12 11 11 11 11 12 12 13 13 13 14 14 14 15 15 15 15 14 14 14 13 14 16 17 17 18 19 18 17 17 17 18 18 17 17 18 17 17 18 21 21 19 19 19 19 20 20 20 19 19 19 19 19 18 17 17 18 18 19 19 19 19 20 23 23 24 23 22 21 21 17 19 20 12 11 23 24
6 5 2 2 8 9 10 13 12 12 11 11 11 12 12 12 13 13 14 14 14 15 15 15 15 14 14 14 14 15 15 16 17 18 19 18 17 17 17 19 18 17 17 17 16 17 19 21 21 20 19 19 19 20 20 21 21 20 20 19 18 17 17 17 17 16 16 16 16 16 16 20 21 21 22 22 22 21 18 19 19 16 15 25 22
8 4 3 3 7 8 8 12 12 11 11 10 11 12 12 12 13 13 14 14 14 14 14 15 15 15 14 12 14 15 15 16 16 18 19 18 17 17 17 18 18 17 17 17 18 20 20 22 22 20 20 19 19 20 20 20 20 19 20 19 18 17 17 16 15 15 14 13 13 9 7 7 12 21 20 20 22 23 20 22 23 24 25 23 24
7 5 2 3 4 7 9 11 12 11 11 10 11 12 12 12 12 13 14 14 14 14 14 14 14 14 13 12 16 15 16 16 16 18 19 18 17 17 17 17 18 17 18 19 18 18 19 20 21 20 19 19 19 18 18 19 19 19 19 18 17 17 17 17 16 16 15 14 13 8 6 7 9 19 20 22 22 20 21 23 23 23 23 24 25
7 4 3 3 4 5 8 12 12 12 11 10 11 12 12 12 13 13 13 14 14 15 14 14 14 13 13 13 13 15 16 16 16 17 19 18 17 17 18 18 18 18 18 17 18 18 19 18 19 20 20 19 18 19 19 19 19 19 18 18 18 18 17 17 16 16 14 13 10 7 8 7 8 11 22 22 23 21 23 24 23 23 24 25 25
7 4 3 3 4 5 8 11 13 12 11 10 11 12 12 12 13 13 13 13 13 13 14 14 13 12 12 14 14 14 15 16 17 17 18 17 17 16 16 17 17 17 17 17 18 18 17 18 18 20 18 18 18 17 17 18 18 18 18 18 18 18 18 17 16 16 15 9 7 7 8 9 8 8 23 22 22 23 24 24 23 23 24 23 23
5 3 3 3 4 4 8 10 12 11 11 10 11 11 12 12 12 12 12 13 13 13 13 13 13 12 13 13 14 14 16 16 17 17 18 17 16 16 16 17 17 17 17 17 16 15 16 17 18 18 18 17 18 18 18 18 18 19 18 18 18 18 17 17 16 15 15 8 7 6 6 7 8 8 22 23 23 23 25 24 23 23 23 23 19
7 4 3 2 3 5 7 9 11 11 10 10 10 11 12 12 11 12 12 12 12 12 12 12 12 12 13 13 13 14 16 17 17 17 17 16 15 16 16 16 17 17 16 16 15 15 16 16 16 17 18 19 18 18 17 17 18 18 19 18 18 18 17 17 15 13 8 7 7 6 6 7 8 10 21 25 25 24 23 19 20 24 24 22 23
6 4 3 2 2 4 5 8 11 11 10 10 10 11 11 11 11 12 12 12 12 12 11 11 12 12 12 13 15 15 16 16 16 17 17 16 15 16 16 15 15 15 15 15 15 16 16 17 17 15 18 19 18 18 18 17 18 18 19 18 18 18 17 15 14 10 7 7 8 8 10 11 8 10 20 25 25 26 24 20 16 17 17 24 26
7 5 4 3 2 3 5 8 9 10 11 11 11 11 11 11 11 12 12 12 12 12 12 12 12 12 11 14 15 15 16 16 17 16 17 16 15 16 16 15 16 14 14 14 14 14 16 17 17 18 18 17 18 18 17 18 18 19 19 19 18 17 16 14 11 8 8 9 8 9 12 16 9 9 22 24 25 25 22 23 22 22 24 25 26
7 6 5 3 5 4 5 7 9 11 10 11 11 11 11 11 11 12 12 12 12 12 12 12 12 12 12 12 14 15 16 17 17 16 15 15 14 14 15 15 15 14 14 14 13 14 15 16 17 17 17 17 17 17 17 18 19 19 19 17 17 16 16 16 8 8 8 8 8 9 9 8 7 15 26 25 24 24 24 23 23 25 25 26 27
7 6 6 3 3 4 6 7 8 10 10 10 11 11 11 11 11 12 12 12 12 12 12 12 12 12 12 12 11 14 14 15 15 16 15 15 13 14 14 15 15 14 14 13 14 15 15 16 16 16 16 16 17 17 18 17 17 18 18 18 17 15 15 12 6 7 7 7 6 7 7 8 11 22 24 25 25 24 26 26 26 27 27 27 27
8 7 6 4 3 5 5 8 8 9 9 10 11 11 10 11 11 11 12 12 12 12 12 12 12 13 12 11 10 11 13 13 14 14 14 14 13 13 14 14 15 14 13 13 14 15 16 16 16 16 16 17 17 18 18 17 17 17 17 16 15 15 11 7 7 7 7 7 8 8 7 9 12 22 24 23 23 24 25 26 27 27 27 27 26
8 8 7 4 4 3 5 7 7 7 7 8 9 9 10 10 10 10 11 12 12 12 12 12 12 12 12 12 11 10 11 10 10 12 12 12 12 13 13 15 14 14 13 14 14 14 15 16 16 16 17 16 16 17 19 19 17 16 15 15 14 11 9 6 6 6 6 7 6 7 8 9 20 23 24 24 24 25 25 25 26 26 26 26 26
6 7 6 4 4 3 3 6 7 7 6 7 8 8 9 9 9 10 11 11 11 12 12 12 12 12 12 12 12 12 12 12 12 11 11 11 12 12 14 15 14 13 13 14 14 15 16 16 16 16 16 16 17 17 17 17 16 15 14 13 12 10 10 7 6 6 6 6 7 7 9 12 23 23 24 25 25 24 25 25 25 25 25 25 25
5 6 6 6 4 4 3 3 5 7 6 7 7 7 7 7 8 9 10 9 10 11 11 11 11 12 12 11 12 11 11 12 12 12 11 11 12 11 13 16 15 13 14 14 15 15 16 16 16 17 17 17 17 16 16 16 16 15 13 13 12 10 10 8 6 6 6 6 6 7 9 10 20 23 24 24 24 24 24 24 24 24 24 24 24
4 6 6 6 4 4 4 3 4 3 3 6 6 8 8 7 8 8 9 9 9 10 9 9 9 10 10 10 10 10 10 11 11 11 10 11 11 7 12 16 15 14 14 14 15 16 16 16 16 17 17 16 16 16 16 15 15 14 13 13 11 10 10 9 6 6 6 7 8 8 8 16 22 22 22 22 23 23 24 23 23 22 23 23 22
4 5 5 6 5 4 4 4 4 3 4 4 3 6 9 8 8 8 9 9 8 9 9 9 10 10 11 10 10 10 10 10 10 9 9 9 7 6 11 15 15 14 14 14 15 16 16 16 17 16 16 16 16 15 15 15 14 13 13 11 10 10 10 7 5 6 6 6 7 8 9 19 21 22 23 23 23 23 23 23 22 22 21 22 22
5 5 5 5 5 5 4 4 4 4 4 4 4 4 7 9 8 9 9 8 8 9 9 10 11 11 11 11 11 9 9 9 11 8 9 8 7 5 8 13 14 13 14 14 15 15 16 16 16 16 16 16 15 15 14 14 14 13 12 11 10 10 7 5 5 5 6 6 5 7 14 19 22 22 22 22 22 21 21 22 21 21 21 21 21
5 6 5 5 5 5 6 5 5 5 5 5 4 4 6 8 7 9 9 9 9 9 10 11 11 10 10 10 10 7 6 5 6 5 7 5 7 7 8 13 13 12 13 14 15 15 15 15 16 16 16 16 14 14 13 13 13 12 12 10 10 7 5 5 5 6 6 7 7 7 16 17 21 23 22 22 22 21 20 20 20 20 20 20 21
6 6 6 6 6 6 6 6 5 6 5 5 4 4 5 7 6 5 5 7 8 9 8 6 7 6 9 7 6 5 5 5 5 6 5 4 5 8 10 12 12 10 11 13 14 15 15 15 16 16 15 14 12 8 7 10 12 11 9 10 8 5 5 5 6 6 6 5 4 10 18 20 20 21 21 21 20 20 20 20 20 20 20 20 20
8 6 6 7 5 5 6 6 5 6 6 5 4 5 6 5 5 6 5 6 6 6 6 6 5 6 5 5 5 5 5 5 5 5 4 7 6 9 10 11 12 11 11 13 15 15 15 15 15 14 13 12 8 6 6 5 6 8 8 7 6 5 5 6 5 5 6 6 7 14 16 19 20 21 20 20 20 19 19 19 19 19 19 20 20
9 8 8 6 6 6 7 7 6 6 6 5 5 5 5 5 5 5 5 5 5 5 5 5 5 5 6 5 5 5 5 5 6 9 7 6 7 10 12 12 12 11 11 8 11 13 15 15 14 12 8 5 6 6 6 5 5 5 5 5 5 5 6 5 5 5 5 5 6 15 17 20 20 20 20 19 18 17 17 18 19 19 20 19 18
7 6 6 7 8 7 6 7 6 6 7 6 6 6 6 5 5 6 6 5 5 5 5 5 5 5 6 5 5 5 5 5 5 5 5 5 5 5 5 5 5 5 7 6 6 6 6 6 6 7 5 6 6 5 5 6 5 5 5 5 5 5 5 5 4 5 4 6 7 14 16 19 21 21 20 19 19 18 18 18 18 18 18 18 17
5 7 8 7 8 8 7 6 6 6 7 6 7 6 6 6 6 6 6 5 5 4 4 5 5 5 5 6 5 6 5 5 4 4 5 5 5 5 5 5 5 4 3 6 5 5 5 5 6 6 5 5 6 5 4 5 6 5 5 5 5 5 5 4 4 4 3 5 7 14 15 18 20 19 18 17 16 16 17 17 17 18 17 18 17
8 7 7 6 7 8 8 7 7 7 8 6 6 6 6 5 5 6 7 6 5 5 5 4 5 5 5 6 7 6 5 5 5 5 5 5 5 5 5 5 5 5 3 6 5 5 5 5 5 5 5 5 6 5 4 4 5 6 5 5 5 5 5 4 4 4 4 4 8 14 15 17 20 19 19 18 18 17 16 15 15 16 16 16 16
6 7 7 7 7 9 9 9 8 7 7 7 7 7 5 6 5 6 7 7 6 6 5 5 5 5 5 5 6 7 7 6 5 6 5 4 5 5 5 5 5 5 3 5 6 5 5 5 5 5 5 5 6 5 5 4 5 4 6 5 5 5 5 4 4 3 3 3 6 10 12 13 14 16 16 16 17 16 15 15 16 15 16 15 15
9 9 8 8 9 9 9 10 9 9 7 6 8 8 6 6 6 6 6 7 7 6 6 5 5 5 5 6 6 7 6 6 6 6 5 5 5 5 5 5 5 5 4 4 5 6 5 5 5 5 5 5 5 5 6 4 4 4 5 5 4 5 5 5 4 3 3 3 4 8 12 12 11 12 15 16 16 16 15 15 13 14 15 15 14
11 9 8 9 8 9 11 11 10 9 8 7 7 7 7 7 7 7 6 7 7 7 7 6 5 5 5 5 5 7 7 7 7 5 6 6 5 4 5 5 5 5 5 5 4 5 6 5 5 5 6 5 5 4 4 6 5 4 4 6 5 5 5 4 4 4 3 4 4 5 11 11 11 13 12 13 16 15 15 14 14 14 14 14 14
9 11 10 8 7 10 10 11 10 9 8 8 7 8 8 7 7 7 6 8 7 7 7 6 6 6 5 5 5 5 6 6 7 7 5 5 5 5 5 5 5 5 5 5 3 5 5 5 6 6 5 5 5 4 4 5 5 4 3 5 5 4 5 4 4 3 3 4 4 4 5 9 10 10 10 13 13 12 12 12 13 14 14 14 14
12 14 10 7 7 9 9 11 11 10 10 9 8 8 9 8 8 7 6 7 7 7 7 7 7 6 5 5 5 5 5 5 6 6 6 6 5 5 4 5 5 5 4 5 5 4 5 5 4 5 4 5 5 4 3 5 5 4 3 5 5 5 5 4 4 3 3 4 4 4 5 6 9 8 10 13 13 14 13 12 10 15 14 13 14
10 10 9 8 10 8 9 9 10 11 12 11 9 8 8 8 7 8 7 7 7 7 7 7 6 6 6 6 5 5 6 6 6 7 6 6 6 6 5 4 5 5 5 5 6 5 5 6 5 5 5 5 6 5 4 4 5 4 3 4 6 6 4 4 4 4 4 3 4 4 5 4 4 8 10 6 14 15 14 13 11 8 10 12 12
8 6 7 12 9 7 7 7 9 11 13 11 9 8 9 9 7 7 8 8 7 7 7 7 6 6 7 7 6 6 6 6 7 6 6 6 6 6 6 5 5 4 5 5 6 5 6 6 6 6 5 5 5 4 5 5 4 4 4 3 5 5 4 5 4 3 3 3 3 3 4 4 4 4 4 9 9 6 13 11 12 11 10 11 10
5 7 12 11 10 10 8 7 10 10 10 11 11 9 8 8 8 7 8 9 7 7 6 7 7 7 7 7 8 7 7 7 7 8 7 7 6 6 6 6 5 5 5 5 6 5 5 6 6 7 5 5 5 4 4 5 5 5 3 3 4 4 4 4 4 3 3 3 3 3 4 4 4 4 4 5 6 11 6 12 10 11 11 9 8
12 11 8 7 11 11 10 10 9 12 12 11 9 10 9 7 8 8 8 9 7 6 6 7 8 8 8 8 9 9 8 8 8 8 8 7 7 7 7 6 6 5 5 5 5 6 5 5 4 7 8 5 6 5 4 5 5 5 3 3 3 3 3 4 4 3 3 3 3 2 3 3 3 4 4 4 5 5 10 8 8 11 11 10 9
11 9 11 9 10 11 12 12 13 12 12 12 12 9 10 10 8 6 8 10 10 8 6 6 8 9 8 9 10 9 9 10 10 9 8 8 7 8 8 8 7 7 7 6 5 5 7 6 5 4 6 8 7 6 5 5 5 4 4 4 4 3 4 2 3 2 1 3 2 2 2 3 2 4 3 3 4 4 7 10 11 11 5 11 11
9 10 10 12 13 11 12 13 13 12 11 10 11 11 9 9 11 9 8 7 8 9 10 7 7 8 9 9 10 11 10 9 10 10 9 9 8 8 8 9 9 8 7 7 6 5 6 7 8 5 5 7 7 8 7 6 5 5 4 3 3 3 3 2 2 2 1 2 2 2 2 2 2 3 3 3 3 4 4 7 9 8 11 10 5
9 10 9 10 7 8 8 10 11 11 11 9 9 8 8 8 7 8 10 12 11 7 6 9 9 7 10 10 10 9 10 11 10 9 10 10 8 7 8 9 8 8 8 7 7 7 7 7 9 7 4 3 7 7 8 7 6 5 5 3 2 3 2 2 2 2 2 1 1 1 2 2 2 2 3 2 3 3 4 4 3 4 6 9 11
7 8 9 8 9 8 8 8 10 10 10 9 7 7 6 7 8 6 7 6 7 10 10 8 6 7 9 10 10 10 11 12 13 12 9 8 9 9 9 9 9 9 9 9 8 8 10 8 6 7 7 4 3 6 8 9 7 7 5 4 3 3 3 3 3 2 2 1 1 2 1 2 2 2 2 2 2 2 3 3 3 4 4 7 9
7 8 9 11 11 12 11 13 11 10 10 10 9 9 9 7 6 9 7 5 5 5 9 11 10 9 8 10 12 11 10 11 11 11 12 10 8 8 9 9 9 10 11 13 13 12 9 8 7 6 9 8 4 5 6 8 10 5 3 3 3 2 2 2 2 2 2 2 1 1 1 1 1 1 1 2 1 1 2 3 4 4 5 5 4
10 10 13 15 14 12 12 12 8 10 11 11 10 9 10 10 9 8 6 5 5 6 7 8 10 8 10 12 12 11 11 12 11 11 11 11 10 8 9 11 11 11 11 10 10 9 9 8 8 7 5 9 7 8 8 9 2 8 8 3 2 2 1 1 2 3 2 2 2 2 1 1 1 1 1 1 0 0 1 2 3 4 4 4 3
7 10 11 7 8 9 10 9 9 11 11 11 10 11 9 8 8 5 7 4 5 6 5 4 4 8 9 7 7 10 11 9 10 10 10 11 11 10 10 11 12 11 10 10 10 12 12 12 11 11 10 5 4 7 11 11 7 5 4 6 2 1 4 2 3 5 4 3 2 2 2 1 3 2 2 1 1 1 0 0 3 4 4 3 4
6 6 8 11 10 9 10 10 10 10 10 11 11 9 6 4 2 3 4 5 5 4 5 2 4 5 6 6 5 6 9 12 13 12 9 9 10 12 11 11 12 12 12 13 12 13 12 12 12 10 10 10 8 11 12 10 6 13 5 5 2 2 3 13 10 3 3 3 2 4 2 3 3 3 2 3 4 3 2 1 2 3 3 3 4
8 9 9 10 9 12 12 11 9 10 9 8 9 5 6 5 4 3 2 2 1 3 4 4 5 5 4 7 8 7 6 5 7 11 12 11 10 8 7 8 8 10 10 10 12 14 15 15 16 13 12 13 10 6 9 10 9 10 10 8 2 1 11 0 5 6 2 4 5 4 4 4 4 4 4 5 3 3 3 3 2 2 3 3 3
9 9 7 7 6 6 6 7 6 6 8 8 8 8 8 9 8 7 6 5 7 6 9 10 7 7 8 4 4 6 8 10 8 7 9 10 11 12 13 12 11 8 8 7 7 5 6 9 12 14 15 12 14 9 9 11 8 10 7 1 6 9 8 4 6 8 1 5 3 4 6 5 4 4 5 5 5 5 4 5 3 4 3 3 3
8 4 5 6 6 6 7 8 7 6 6 6 8 8 7 8 10 11 11 11 11 10 8 6 7 7 4 6 6 5 5 5 6 10 9 8 9 10 11 11 10 9 9 8 8 10 11 12 11 11 13 12 10 10 14 14 6 9 9 5 4 2 6 10 9 5 3 3 5 7 7 6 5 5 6 6 5 5 5 4 4 4 4 4 4
4 4 5 5 7 7 7 7 6 6 6 6 8 9 10 9 9 10 9 10 11 10 7 7 6 5 7 8 6 6 6 6 4 3 6 11 12 11 11 13 13 14 14 14 15 13 11 9 10 12 10 10 13 14 14 11 15 15 13 9 4 3 5 2 5 12 5 4 7 4 3 6 5 8 7 8 8 7 6 6 6 5 5 5 4
4 5 6 5 5 5 6 5 6 6 6 8 9 8 9 10 10 9 9 8 7 4 3 3 5 4 6 5 6 5 5 6 6 7 5 4 8 10 10 8 8 10 10 11 11 12 15 15 14 13 14 13 12 12 9 12 14 13 10 10 6 5 3 3 2 4 6 6 7 9 11 3 3 9 9 8 8 8 8 8 7 7 6 6 6
2 2 3 4 4 5 6 7 6 6 6 7 8 8 8 7 8 8 10 7 4 2 3 4 4 4 6 6 6 6 6 6 5 6 6 5 5 7 8 10 10 8 6 8 9 10 11 12 14 15 15 16 13 12 13 12 14 13 12 13 13 6 3 3 4 6 4 6 9 8 10 12 11 15 9 11 11 10 8 7 7 7 6 6 6
1 3 4 4 4 5 6 6 6 5 6 7 7 8 7 7 8 8 9 8 6 5 4 4 4 4 7 7 7 7 6 6 6 6 6 5 6 5 6 7 9 10 12 13 13 12 11 12 12 13 14 16 13 14 13 10 9 10 10 11 14 15 17 15 15 12 12 10 8 10 7 12 16 9 9 11 10 10 9 8 8 8 8 7 6
Wind_Direction
217 171 187 152 149 163 136 127 122 118 113 107 104 102 98 95 90 86 85 83 84 84 85 86 86 86 85 82 81 84 83 87 87 87 85 85 86 85 87 88 84 81 77 76 77 79 81 80 75 78 78 78 77 74 76 75 74 72 73 71 67 63 59 61 62 58 57 63 70 72 73 74 73 72 73 71 69 69 67 68 66 64 66 69 71
165 173 161 171 155 146 140 127 124 120 116 112 108 103 101 99 96 93 90 87 85 84 85 86 87 87 89 87 89 81 85 91 90 89 90 88 89 90 90 86 82 79 78 76 76 76 81 81 79 76 76 75 76 77 75 76 77 76 76 72 72 70 64 58 60 63 63 62 60 62 68 73 71 71 73 73 72 72 71 73 72 70 72 72 70
126 137 160 181 150 147 144 131 126 123 117 113 108 104 102 99 96 94 89 86 84 86 87 89 90 93 93 90 89 87 91 96 95 94 90 90 92 92 88 87 87 81 78 78 76 83 90 83 80 78 78 79 79 79 79 80 79 79 79 73 67 61 58 56 53 53 51 54 58 56 57 65 72 75 74 75 75 71 69 72 73 74 76 76 75
130 134 146 147 145 144 148 132 127 123 117 116 113 107 102 99 96 93 93 91 88 85 85 86 88 90 90 92 94 84 89 93 93 93 92 92 94 94 95 94 89 84 82 82 83 85 87 86 83 80 81 81 81 81 82 81 80 80 79 75 65 62 60 57 55 52 50 47 46 45 58 55 70 74 76 77 77 73 70 71 73 75 76 75 75
127 134 119 101 134 147 152 130 128 122 120 119 113 107 101 98 98 96 94 91 90 89 90 91 91 90 90 87 74 82 88 91 92 95 95 95 95 96 95 93 89 86 86 85 84 84 86 85 85 85 85 83 82 82 80 79 81 81 79 71 65 63 62 59 55 52 49 46 44 39 46 67 76 82 84 81 78 76 74 73 72 73 75 77 78
138 123 106 104 122 148 147 133 131 128 127 121 114 110 107 102 98 96 95 95 94 94 93 93 93 91 88 87 86 83 88 92 96 96 96 96 96 97 97 95 89 85 85 86 86 86 85 86 90 91 87 86 82 78 78 81 82 80 71 63 63 61 58 55 51 49 47 48 48 53 54 46 68 85 86 85 81 79 80 79 78 79 76 76 76
139 112 109 112 121 144 147 140 135 133 129 125 118 113 109 105 100 96 96 96 95 95 96 97 94 90 92 91 82 84 91 97 97 96 95 97 99 99 96 91 89 88 87 87 86 87 89 89 90 93 92 90 88 86 82 79 79 79 72 65 62 60 57 53 53 53 52 50 55 58 60 60 61 74 84 82 83 83 81 79 76 71 72 73 72
131 112 112 117 127 139 142 143 136 132 131 128 122 116 110 106 103 101 98 97 96 97 99 100 97 92 88 91 89 87 91 95 97 97 96 99 101 101 97 95 94 91 92 91 90 91 93 95 96 95 94 90 87 81 80 79 78 76 70 67 63 59 57 55 50 51 57 56 55 59 65 73 81 79 79 79 76 74 73 73 73 74 73 72 69
144 129 111 119 130 134 153 145 137 135 134 130 124 119 113 110 108 105 101 99 99 98 99 99 98 94 92 92 91 88 90 94 92 90 94 99 101 101 99 94 91 89 88 88 88 92 95 98 97 102 97 92 90 88 88 85 80 76 71 68 64 61 57 53 48 46 49 52 57 58 56 65 76 79 81 79 76 72 71 70 71 73 73 73 72
142 137 124 115 139 149 162 147 144 141 137 135 131 124 118 113 113 111 107 102 99 100 99 96 93 91 94 97 83 85 90 88 88 92 98 99 100 99 97 98 93 89 90 91 89 91 94 90 89 91 98 98 92 86 84 85 81 78 72 70 67 62 57 52 49 47 52 50 57 61 70 72 72 80 83 81 79 76 73 73 75 74 74 72 70
144 146 135 131 159 175 179 153 145 143 143 143 138 130 124 120 118 114 111 108 107 107 105 103 97 92 94 99 94 94 94 95 98 95 97 100 102 104 103 99 96 96 95 96 96 93 89 91 89 88 88 91 91 88 83 79 77 76 75 71 69 67 62 52 45 48 49 54 54 56 62 61 54 76 86 85 80 77 74 75 76 75 73 73 71
150 150 150 147 175 180 183 154 148 146 148 149 142 136 130 127 123 119 115 112 111 110 108 106 103 99 97 100 98 94 96 97 95 96 98 98 102 106 104 102 100 98 98 97 96 95 95 92 93 92 91 90 86 84 84 81 81 81 77 71 70 67 65 66 53 53 51 53 59 67 68 74 82 78 79 80 80 78 76 71 71 72 69 68 68
152 157 158 154 174 183 177 159 148 148 153 153 147 139 135 133 129 124 120 117 116 113 112 111 109 104 100 100 106 105 102 102 102 102 103 104 106 106 106 102 101 100 99 100 101 100 100 99 97 97 97 93 90 86 83 85 86 84 80 79 77 73 75 64 56 58 58 55 56 56 70 74 76 77 78 79 78 76 72 70 69 68 67 66 66
151 160 161 159 151 181 176 160 150 151 158 157 148 141 140 136 132 128 123 122 120 119 118 116 113 109 104 105 107 111 113 111 108 107 108 109 112 112 111 107 100 97 99 102 102 102 101 101 100 100 99 95 95 91 91 93 94 89 83 80 77 81 66 55 53 62 63 63 65 67 73 80 81 79 77 77 78 75 72 72 70 70 70 69 68
156 159 162 153 151 166 176 155 151 156 161 156 148 146 145 141 135 131 126 124 125 123 121 119 117 113 110 107 107 109 107 103 112 118 114 114 117 120 120 108 105 102 102 104 105 104 103 102 103 102 101 99 97 92 94 95 90 84 81 78 77 65 60 66 61 61 65 66 68 71 69 76 78 76 76 75 75 76 76 76 74 72 72 71 71
154 152 155 155 152 152 159 153 155 155 158 151 149 152 150 141 137 134 129 127 126 124 123 121 118 116 114 111 109 109 107 105 105 105 110 113 121 127 122 113 106 105 107 106 107 107 104 103 104 103 103 103 99 91 89 86 83 80 76 71 63 56 60 66 64 62 59 61 64 69 75 75 78 78 80 80 79 78 77 77 75 74 73 73 74
150 152 155 161 152 150 147 145 155 155 149 149 152 144 144 140 137 135 131 128 128 126 125 123 119 119 117 114 110 105 105 110 110 111 112 116 124 124 120 110 106 107 110 109 110 108 106 108 108 107 106 100 95 90 89 86 82 79 73 68 64 55 56 60 66 61 67 69 69 71 76 76 81 83 82 82 82 81 81 79 79 78 76 75 75
160 159 166 162 154 149 148 145 146 151 144 148 148 142 145 140 135 132 129 129 132 129 124 123 117 108 102 100 103 105 105 107 108 109 109 113 120 126 115 113 108 106 113 112 112 113 114 111 108 105 100 94 90 89 87 84 80 74 71 66 62 54 59 58 67 66 68 75 77 79 84 92 91 88 85 85 84 83 81 80 81 82 80 78 77
166 170 165 165 165 148 151 145 145 149 148 146 145 150 148 142 135 132 131 133 131 126 124 109 103 105 101 96 95 93 92 89 89 90 92 97 106 106 107 112 112 113 116 116 118 117 115 111 105 100 92 89 87 85 83 80 76 75 72 67 56 61 59 59 62 71 72 74 86 91 93 93 91 89 89 87 86 85 83 82 82 80 82 80 79
167 176 176 173 165 159 149 151 154 153 149 144 145 153 148 141 139 135 135 133 130 124 112 107 104 102 101 98 96 94 90 89 90 88 90 90 92 99 108 110 112 120 119 121 118 119 117 111 103 95 89 85 80 75 76 79 77 75 73 69 65 61 58 59 65 72 78 77 81 96 98 97 96 95 91 88 86 85 88 88 84 84 83 80 79
142 183 182 175 168 168 160 157 160 155 151 149 151 157 151 141 138 137 136 134 129 118 111 107 105 103 104 103 97 95 96 94 91 96 92 92 96 106 113 107 113 115 122 126 120 118 115 108 96 91 87 82 75 67 60 69 70 72 74 70 69 63 54 63 70 77 78 86 98 104 105 99 97 96 93 92 88 83 81 82 84 86 84 85 84
168 171 187 180 174 178 170 163 161 158 158 152 155 158 153 146 140 138 135 132 123 119 118 119 116 114 109 104 104 104 104 102 103 102 99 91 86 94 94 106 111 110 119 126 120 118 115 100 97 94 90 85 75 73 64 57 59 63 64 71 70 67 54 61 72 78 84 92 104 101 95 95 94 93 92 90 90 93 94 91 87 84 85 87 85
187 171 181 184 186 177 175 174 170 162 161 158 159 158 157 150 145 138 133 132 132 128 126 124 123 123 115 112 112 115 114 114 115 117 110 101 95 89 90 106 107 106 114 117 124 115 101 99 94 92 87 82 75 76 73 66 58 54 58 63 72 65 71 64 64 70 84 91 95 102 103 99 94 93 93 93 90 89 88 91 95 96 96 93 91
189 188 181 182 185 188 180 180 178 167 166 166 160 161 163 158 152 143 137 134 135 135 132 132 131 129 128 123 121 121 117 115 117 113 103 89 76 74 80 84 88 90 94 97 95 93 95 88 89 86 79 78 85 78 81 73 59 56 63 60 65 61 65 69 71 72 87 96 106 104 101 101 99 95 92 90 94 100 97 95 92 91 90 90 90
191 178 185 187 188 187 181 183 181 173 173 172 167 170 165 162 158 150 144 143 138 137 138 136 137 136 131 127 125 119 117 115 116 107 96 97 85 78 76 81 88 86 87 88 87 80 80 88 79 73 74 84 86 76 88 85 63 58 64 59 66 62 60 56 61 70 81 103 111 108 106 104 102 101 102 104 106 102 100 97 95 94 92 93 93
181 191 193 187 189 184 184 181 184 181 181 179 178 169 166 172 160 156 149 152 147 145 146 144 143 144 138 132 123 117 116 118 116 112 105 106 100 98 94 104 97 94 95 101 92 95 88 90 89 86 77 78 80 80 71 93 96 69 70 67 61 65 63 54 45 51 56 98 105 109 108 107 105 104 103 103 98 101 103 106 105 101 99 96 93
197 203 187 192 186 186 182 181 189 184 187 181 177 175 182 173 161 160 156 160 155 152 160 157 155 150 146 143 137 134 129 131 128 127 125 122 119 121 119 114 115 110 107 115 102 93 99 96 94 92 93 90 82 70 71 72 84 95 71 69 68 62 58 54 42 38 42 89 109 112 114 113 111 110 110 108 108 110 109 105 103 102 98 97 93
202 205 194 188 185 188 183 183 189 187 190 181 179 179 184 174 166 157 168 160 159 166 164 167 155 157 155 154 143 146 147 145 145 141 142 131 136 131 127 116 115 115 110 113 114 102 100 100 104 98 96 88 96 80 58 57 64 75 90 68 68 64 60 47 29 29 36 53 102 113 114 115 115 112 113 111 113 106 105 108 109 110 105 100 102
211 209 200 192 190 188 183 187 190 189 189 186 182 184 188 180 166 167 178 160 171 171 164 155 165 160 162 159 153 146 148 147 152 151 140 140 137 135 132 128 121 125 120 110 121 122 111 114 111 109 101 100 95 94 95 62 54 56 83 79 67 68 54 38 25 26 32 37 72 115 115 117 116 117 119 117 113 114 116 115 111 108 106 110 106
211 209 204 201 190 184 188 190 188 190 187 191 189 186 190 188 178 175 176 163 178 168 156 165 168 166 169 170 168 157 158 157 153 150 150 148 144 135 131 137 134 136 130 127 131 126 129 119 114 112 111 106 100 93 93 100 78 65 68 87 66 65 61 43 17 12 13 36 44 88 111 115 117 118 114 115 120 122 122 119 124 115 110 110 111
205 214 212 203 184 182 192 189 189 187 189 197 191 191 190 195 184 177 172 175 174 166 166 168 165 175 173 167 164 162 152 153 152 154 147 144 147 145 144 137 134 143 137 131 126 129 124 125 131 129 122 113 101 94 101 98 90 76 71 88 87 65 60 44 28 10 24 29 41 56 62 87 106 112 118 124 120 122 125 127 126 120 124 119 115
207 215 210 197 192 193 188 188 188 188 192 198 193 192 195 196 185 182 182 174 173 174 173 172 173 172 169 170 166 163 159 153 154 155 153 151 151 149 147 147 150 144 140 138 130 125 122 113 104 105 107 108 103 85 73 99 88 79 72 91 91 77 51 41 41 23 28 28 40 45 60 54 50 80 120 125 124 129 130 133 131 132 132 127 125
218 216 208 204 206 199 197 192 189 188 194 197 197 194 193 196 189 186 187 174 180 175 179 179 175 166 167 172 172 168 167 159 162 161 157 155 150 148 154 159 155 148 143 139 127 122 115 113 100 103 101 98 97 88 83 80 92 73 76 82 86 70 65 70 44 32 27 19 19 37 54 48 47 56 44 82 138 139 139 135 132 123 124 128 126
209 205 202 211 207 205 202 196 197 197 192 195 196 196 193 195 192 188 184 181 185 181 180 178 172 165 170 176 175 174 173 163 160 158 156 152 154 157 159 160 159 150 142 142 137 140 131 126 128 115 114 116 114 114 116 99 57 78 77 74 69 32 69 77 63 36 24 25 1 32 37 48 54 52 44 45 39 119 146 145 140 133 136 134 137
199 200 206 207 201 205 196 208 198 207 195 195 194 196 192 192 192 191 189 185 185 186 175 176 178 175 169 178 180 178 181 170 167 162 165 161 159 161 165 166 156 152 148 157 142 140 138 140 143 125 116 108 114 111 117 117 115 95 65 65 73 60 32 51 54 46 40 11 12 28 28 41 54 52 50 38 33 36 25 150 148 147 146 143 142
212 210 207 195 207 206 199 205 200 205 206 201 202 198 193 194 195 193 188 188 187 188 184 177 181 181 177 178 184 182 183 174 171 169 166 174 171 171 173 159 160 151 152 151 146 147 145 139 154 146 134 138 131 113 98 107 95 89 70 68 48 34 59 35 32 28 6 25 21 26 29 41 42 60 53 39 49 31 38 54 126 154 151 149 146
212 205 203 198 207 206 204 203 204 206 205 201 200 204 197 193 196 195 196 187 189 191 185 186 181 187 183 184 182 183 189 180 175 175 173 177 182 176 169 168 161 159 159 159 159 159 151 150 158 184 158 147 144 129 112 108 102 86 70 43 12 14 50 40 50 19 2 56 16 13 37 36 39 55 47 63 49 50 40 52 52 43 66 156 156
212 210 207 201 207 201 202 204 206 204 205 203 200 199 201 201 196 195 190 200 205 193 182 180 198 186 188 192 184 179 186 189 184 176 179 181 183 182 170 167 165 162 160 164 167 161 164 161 161 175 162 146 149 146 138 122 113 101 75 37 34 24 14 17 2 8 31 68 28 14 357 356 43 43 51 49 55 58 61 53 47 53 53 38 144
210 208 206 208 204 203 203 208 207 203 206 203 200 200 193 195 199 195 198 196 190 199 206 191 190 190 192 190 184 187 185 185 187 188 184 178 180 179 167 170 168 163 161 166 166 173 175 182 168 157 153 147 155 151 142 134 116 104 81 43 29 36 7 11 0 18 5 355 16 14 348 1 15 23 47 36 36 64 78 65 57 73 48 50 48
205 200 204 202 204 202 200 204 206 202 201 203 196 198 191 192 196 196 194 206 203 188 186 202 200 194 189 189 192 196 191 189 186 184 191 186 178 174 174 172 172 165 167 172 177 185 184 177 175 153 141 99 81 129 136 128 105 90 68 47 35 11 32 3 0 354 333 355 346 348 358 338 14 14 26 13 25 61 83 85 89 86 68 52 52
201 196 198 203 202 200 190 203 199 193 193 197 198 196 197 198 202 201 204 182 196 204 196 192 195 203 203 199 199 201 197 194 191 184 186 185 191 178 168 176 180 179 178 184 184 184 180 173 154 155 155 147 146 159 158 140 128 84 46 51 24 6 12 21 359 325 327 326 315 335 333 354 355 21 347 355 16 42 79 100 109 90 84 72 54
212 197 199 203 201 195 196 202 183 192 197 197 197 198 201 204 198 203 196 181 188 201 211 207 201 203 213 206 197 194 191 194 194 192 192 184 181 180 181 180 181 186 190 190 176 167 167 170 160 154 186 168 164 177 175 138 165 172 159 179 349 296 217 301 273 261 273 295 298 314 323 312 291 318 336 3 1 18 38 110 107 106 97 89 82
207 201 210 199 194 196 203 194 189 190 198 196 193 202 202 201 196 194 189 192 200 199 204 197 201 198 193 205 201 188 188 194 195 195 195 193 187 183 189 185 190 187 183 182 177 171 175 177 180 178 166 181 152 184 190 200 148 102 81 90 237 194 264 280 241 238 231 244 309 286 283 280 265 291 315 312 273 275 293 39 114 111 110 112 107
214 204 201 199 194 198 198 193 192 194 194 196 198 203 190 162 156 153 189 186 186 187 196 202 199 204 209 191 199 219 208 190 186 190 198 204 195 193 191 189 192 190 189 183 182 182 177 179 181 192 176 163 180 199 207 202 159 138 157 182 131 147 299 236 214 242 177 247 258 263 272 254 268 295 310 261 245 261 262 299 147 122 128 134 109
213 209 200 198 195 198 198 192 189 192 194 188 189 160 128 118 108 65 69 87 34 155 179 208 205 209 212 198 211 195 210 228 208 197 188 187 185 189 195 203 199 197 199 195 188 188 184 186 185 177 183 183 181 194 211 218 212 206 140 120 83 41 227 333 149 244 141 239 244 247 262 258 256 255 256 259 277 268 268 256 215 159 155 132 118
216 215 201 200 190 193 185 185 183 183 189 185 174 160 169 164 159 163 176 191 206 197 208 208 200 203 210 209 201 213 216 203 188 198 200 193 189 190 190 187 191 193 195 199 197 182 195 195 188 183 186 194 184 173 201 227 232 238 229 127 157 170 178 182 127 242 56 218 242 223 232 246 240 246 245 256 257 256 254 244 228 209 179 161 153
227 196 191 192 188 180 181 182 184 183 176 170 166 166 170 177 185 193 197 200 208 218 216 212 209 210 202 201 209 205 225 236 220 193 191 211 212 191 184 183 187 192 190 189 191 197 195 196 194 193 197 189 172 189 196 201 214 256 243 217 102 128 145 139 201 68 280 248 215 223 234 223 237 242 240 237 238 250 259 260 249 231 212 192 175
207 182 188 183 184 181 174 180 176 171 173 163 170 178 182 186 192 202 205 210 212 217 196 207 204 190 202 212 210 216 214 216 224 263 223 187 186 190 189 189 191 195 192 197 198 196 194 196 195 201 194 197 198 200 199 184 191 215 212 215 164 102 170 112 136 180 164 182 223 221 260 218 226 237 229 225 219 216 230 240 241 238 225 212 190
190 185 190 184 168 159 160 157 168 167 171 172 175 188 191 190 195 198 210 220 217 216 169 175 195 202 211 208 213 216 216 221 223 215 214 227 211 203 196 206 210 205 200 205 204 195 192 188 191 192 197 202 206 213 202 201 204 213 180 222 195 182 156 198 100 201 189 201 243 195 214 154 235 248 227 223 224 212 208 213 221 224 220 211 195
198 168 149 143 147 145 153 161 173 174 170 175 182 189 194 187 196 205 215 217 204 187 146 185 199 194 214 211 213 213 214 220 222 224 223 209 207 212 200 193 193 193 191 215 215 209 206 203 199 198 199 201 207 209 211 211 211 217 200 200 192 159 116 187 223 192 226 210 222 205 202 192 212 230 201 217 217 213 209 208 217 223 229 223 205
75 118 126 139 141 148 154 166 175 164 168 179 181 191 193 193 204 206 212 216 204 195 194 210 201 205 216 218 214 219 213 219 214 223 220 217 219 207 210 208 199 195 197 198 205 205 204 202 202 204 207 207 208 208 214 225 228 237 233 213 203 191 191 193 199 194 194 199 217 235 201 207 214 213 208 209 209 212 206 202 210 214 214 216 216